Flag for China Weather past 2 weeks in Dalian, Liaoning, China

Now
28 °F

Passing clouds.


Feels Like: 19 °F
Forecast: 30 / 33 °F
Wind: 10 mph from North

Location: Dalian Airport

Current Time: Dec 19, 2014 at 10:36:40 PM

Latest Report: Dec 19, 2014 at 10:00 PM


Visibility: N/A

Pressure: 30.21 "Hg

Humidity: 51%

Dew point: 12 °F

Location of DalianLocation

Historic Weather in Dalian — Graph

°F

Dalian temperature yesterday

Maximum temperature yesterday: 43 °F (at 9:30 PM)
Minimum temperature yesterday: 21 °F (at 12:00 AM)
Average temperature yesterday: 34 °F

Past Weeks' High & Low Weather Summary

 TemperatureHumidityPressure
High46 °F (Dec 19, 11:30 AM)100% (Dec 7, 1:00 PM)30.66 "Hg (Dec 7, 1:00 PM)
Low12 °F (Dec 8, 5:30 AM)27% (Dec 13, 1:30 PM)30.09 "Hg (Dec 19, 1:00 PM)
Average29 °F57%30.34 "Hg
* Reported Dec 4 9:00 PM — Dec 19 9:30 PM, Dalian, Weather by CustomWeather, © 2014

Note: Actual official high and low records may vary slightly from our data, if they occured in-between our weather recording intervals... More about our weather records

Advertising

Dalian weather history for previous 24 hours

 ConditionsComfort  
Time TempWeatherWind HumidityBarometerVisibility
9:30 PM
Dec 19
28 °FPassing clouds.13 mph51%30.21 "HgN/A
9:00 PM30 °FPassing clouds.15 mph51%30.18 "HgN/A
8:30 PM30 °FPassing clouds.17 mph51%30.18 "HgN/A
8:00 PM32 °FClear.20 mph51%30.18 "Hg10 mi
7:30 PM32 °FClear.13 mph55%30.15 "Hg4 mi
7:00 PM34 °FFog.13 mph56%30.15 "Hg3 mi
6:30 PM34 °FFog.20 mph56%30.12 "Hg3 mi
6:00 PM36 °FFog.17 mph60%30.09 "Hg2 mi
5:30 PM39 °FFog.13 mph65%30.09 "Hg2 mi
5:00 PM39 °FFog.8 mph65%30.09 "Hg2 mi
4:30 PM39 °FHaze.8 mph65%30.09 "Hg2 mi
4:00 PM41 °FHaze.10 mph57%30.09 "Hg3 mi
3:30 PM43 °FHaze.8 mph53%30.09 "Hg3 mi
3:00 PM43 °FHaze.8 mph49%30.09 "Hg3 mi
2:30 PM45 °FHaze.8 mph49%30.09 "Hg3 mi
2:00 PM45 °FHaze.13 mph46%30.09 "Hg3 mi
1:30 PM46 °FHaze.10 mph43%30.09 "Hg3 mi
1:00 PM46 °FHaze.13 mph43%30.09 "Hg3 mi
12:30 PM46 °FHaze.8 mph43%30.12 "Hg3 mi
12:00 PM46 °FClear.10 mph43%30.12 "Hg4 mi
11:30 AM46 °FClear.10 mph43%30.15 "Hg4 mi
11:00 AM45 °FClear.13 mph46%30.15 "Hg4 mi
10:30 AM45 °FClear.15 mph42%30.18 "Hg4 mi
10:00 AM45 °FClear.15 mph46%30.18 "Hg4 mi
9:30 AM43 °FClear.13 mph49%30.21 "Hg4 mi
9:00 AM43 °FClear.13 mph49%30.21 "Hg4 mi
8:30 AM43 °FClear.13 mph49%30.21 "Hg4 mi
8:00 AM43 °FClear.13 mph49%30.21 "Hg4 mi
7:30 AM41 °FClear.13 mph53%30.21 "Hg4 mi
7:00 AM43 °FClear.13 mph49%30.21 "Hg4 mi
6:30 AM43 °FClear.13 mph49%30.21 "Hg5 mi
6:00 AM43 °FClear.10 mph49%30.21 "Hg5 mi
5:30 AM43 °FClear.10 mph46%30.21 "Hg10 mi
4:30 AM43 °FPassing clouds.13 mph46%30.21 "HgN/A
4:00 AM43 °FPassing clouds.13 mph46%30.24 "HgN/A
3:30 AM43 °FClear.17 mph42%30.24 "Hg10 mi
3:00 AM43 °FClear.15 mph46%30.24 "Hg5 mi
2:30 AM43 °FClear.10 mph49%30.27 "Hg5 mi
2:00 AM43 °FClear.10 mph49%30.27 "Hg5 mi
1:30 AM41 °FClear.10 mph53%30.27 "Hg5 mi
1:00 AM43 °FClear.13 mph49%30.30 "Hg5 mi
12:30 AM41 °FClear.10 mph53%30.30 "Hg5 mi
12:00 AM41 °FClear.10 mph53%30.30 "Hg5 mi
11:30 PM
Dec 18
41 °FClear.10 mph53%30.30 "Hg5 mi
11:00 PM43 °FClear.10 mph46%30.33 "Hg5 mi
10:30 PM41 °FClear.10 mph53%30.33 "Hg5 mi
10:00 PM43 °FClear.13 mph53%30.33 "Hg5 mi
Weather by CustomWeather, © 2014

See weather overviewHow to use our weather pages